Regional Weather Roundup
Issued by NWS

Home | Current Version | Previous Version | Graphics & Text | Print | Product List | Glossary On
Versions: 1 2 3 4 5 6 7 8 9 10 11 12 13 14 15 16 17 18 19 20 21 22 23 24 25 26 27 28 29 30 31 32 33 34 35 36 37 38 39 40 41 42 43 44 45 46 47 48 49 50
000
ASUS44 KMEG 191610
RWRTN
TENNESSEE HOURLY STATE WEATHER ROUNDUP
NATIONAL WEATHER SERVICE MEMPHIS TN
1000 AM CST SUN FEB 19 2017

TNZ002-004-019-021-049-052-054-088>092-191700-
WEST TENNESSEE

CITY           SKY/WX    TMP DP  RH WIND       PRES   REMARKS
MEMPHIS INTL   MOSUNNY   64  55  72 NE5       30.11R
NWS MEMPHIS      N/A     62 N/A N/A MISG        N/A
JACKSON        SUNNY     63  56  78 CALM      30.12R
UNION CITY     SUNNY    N/A N/A N/A CALM      30.09F
PARIS          SUNNY     57  54  88 W5        30.12S
HUNTINGDON     SUNNY     59  54  82 CALM      30.11S
$$

TNZ008-025-027-028-033-062-065-066-191700-
NORTH MIDDLE TENNESSEE

CITY           SKY/WX    TMP DP  RH WIND       PRES   REMARKS
NASHVILLE      CLOUDY    57  50  77 CALM      30.15R
PORTLAND       CLOUDY    55  52  88 S3        30.14R
CLARKSVILLE    CLOUDY    57  52  83 S5        30.12F
SMYRNA         CLOUDY    55  52  89 E3        30.16R
COOKEVILLE     CLOUDY    55  50  82 CALM      30.14S
GALLATIN       CLOUDY    54  52  94 CALM      30.18R
CROSSVILLE     CLOUDY    52  45  77 N8        30.15R
$$

TNZ061-075-076-078-094-096-097-191700-
SOUTH MIDDLE TENNESSEE

CITY           SKY/WX    TMP DP  RH WIND       PRES   REMARKS
FAYETTEVILLE   SUNNY     61  52  72 NE9       30.13R
TULLAHOMA      PTSUNNY   59  52  77 NE5       30.14R
WINCHESTER     SUNNY     57  52  82 NE10      30.14R
MCMINNVILLE    MOSUNNY   55  55 100 CALM      30.15S
COLUMBIA       SUNNY     57  57 100 CALM      30.13R
SHELBYVILLE    PTSUNNY   61  54  77 N7        30.15R
$$

TNZ017-018-042-046-047-191700-
NORTHEAST TENNESSEE

CITY           SKY/WX    TMP DP  RH WIND       PRES   REMARKS
TRI CITIES     CLOUDY    53  47  79 NW8       30.13R
ELIZABETHTON   CLOUDY    52  48  87 VRB5      30.12R
$$

TNZ012-013-036-069-073-074-191700-
CENTRAL EAST TENNESSEE

CITY           SKY/WX    TMP DP  RH WIND       PRES   REMARKS
KNOXVILLE      CLOUDY    54  49  83 SE3       30.14R
OAK RIDGE      PTSUNNY   57  50  77 CALM      30.15S
GATLINBURG     CLOUDY    52  48  87 CALM      30.14R
MORRISTOWN     CLOUDY    54  48  82 CALM      30.13S
JACKSBORO      CLOUDY    55  48  76 VRB3      30.17S
$$

TNZ083-085-099-191700-
SOUTHEAST TENNESSEE

CITY           SKY/WX    TMP DP  RH WIND       PRES   REMARKS
CHATTANOOGA    PTSUNNY   58  52  80 NE5       30.14S
$$

SKY/WX REPORTED AS FAIR MEANS FEW OR NO CLOUDS BELOW
12 THOUSAND FEET.





USA.gov is the U.S. government's official web portal to all federal, state and local government web resources and services.